SCP
0 0 0 0 0 0 0 0 0 0 0 0 0 0 0 0 0 0 0 0 1 1 1 1 0 0 0 0 0 0 0 0 0 0 0 0 0 0 0 0 0 0 0 0
0 0 0 0 0 0 0 0 0 0 0 0 0 0 0 0 0 0 0 0 0 0 1 1 0 0 0 0 0 0 0 0 0 0 0 0 0 0 0 0 0 0 0 0
0 0 0 0 0 0 0 0 0 0 0 0 0 0 0 0 0 0 0 0 0 0 0 0 0 0 0 0 0 0 0 0 0 0 0 0 0 0 0 0 0 0 0 0
0 0 0 0 0 0 0 0 0 0 0 0 0 0 0 0 0 0 0 0 0 0 0 1 1 0 0 0 0 0 0 0 0 0 0 0 0 0 0 0 0 0 0 0
0 0 0 0 0 0 0 0 0 0 0 0 0 0 0 0 0 0 0 0 0 0 0 0 0 0 0 0 0 0 0 0 0 0 0 0 0 0 0 0 0 0 0 0
0 0 0 0 0 0 0 0 0 0 0 0 0 0 0 0 0 0 0 0 0 0 0 0 0 0 0 0 0 0 0 0 0 0 0 0 0 0 0 0 0 0 0 0
0 0 0 0 0 0 0 0 0 0 0 0 0 0 0 0 0 0 0 0 0 0 0 0 0 0 0 0 0 0 0 0 0 0 0 0 0 0 0 0 0 0 0 0
0 0 0 0 0 0 0 0 0 0 0 0 0 0 0 0 0 0 0 0 0 0 0 0 0 0 0 0 0 0 0 0 0 0 0 0 0 0 0 0 0 0 0 0
0 0 0 0 0 0 0 0 0 0 0 0 0 0 0 0 0 0 0 0 0 0 0 0 0 0 0 0 0 0 0 0 0 0 0 0 0 0 0 0 0 0 0 0
0 0 0 0 0 0 0 0 0 0 0 0 0 0 0 0 0 0 0 0 0 0 0 0 0 0 0 0 0 0 0 0 0 0 0 0 0 0 0 0 0 0 0 0
0 0 0 0 0 0 0 0 0 0 0 0 0 0 0 0 0 0 0 0 0 0 0 0 0 0 0 0 0 0 0 0 0 0 0 0 0 0 0 0 0 0 0 0
0 0 0 0 0 0 0 0 0 0 0 0 0 0 0 0 0 0 0 0 0 0 0 0 0 0 0 0 0 0 0 0 0 0 0 0 0 0 0 0 0 0 0 0
0 0 0 0 0 0 0 0 0 0 0 0 0 0 0 0 0 0 0 0 0 0 0 0 0 0 0 0 0 0 0 0 0 0 0 0 0 0 0 0 0 0 0 0
0 0 0 0 0 0 0 0 0 0 0 0 0 0 0 0 0 0 0 0 0 0 0 0 0 0 0 0 0 0 0 0 0 0 0 0 0 0 0 0 0 0 0 0
0 0 0 0 0 0 0 0 0 0 0 0 0 0 0 0 0 0 0 0 0 0 0 0 0 0 0 0 0 0 0 0 0 0 0 0 0 0 0 0 0 0 0 0
0 0 0 0 0 0 0 0 0 0 0 0 0 0 0 0 0 0 0 0 0 0 0 0 0 0 0 0 0 0 0 0 0 0 0 0 0 0 0 0 0 0 0 0
0 0 0 0 0 0 0 0 0 0 0 0 0 0 0 0 0 0 0 0 0 0 0 0 0 0 0 0 0 0 0 0 0 0 0 0 0 0 0 0 0 0 0 0
0 0 0 0 0 0 0 0 0 0 0 0 0 0 0 0 0 0 0 0 0 0 0 0 0 0 0 0 0 0 0 0 0 0 0 0 0 0 0 0 0 0 0 0
0 0 0 0 0 0 0 0 0 0 0 0 0 0 0 0 0 0 0 0 0 0 0 0 0 0 0 0 0 0 0 0 0 0 0 0 0 0 0 0 0 0 0 0
0 0 0 0 0 0 0 0 0 0 0 0 0 0 0 0 0 0 0 0 0 0 0 0 0 0 0 0 0 0 0 0 0 0 0 0 0 0 0 0 0 0 0 0
0 0 0 0 0 0 0 0 0 0 0 0 0 0 0 0 0 0 0 0 0 0 0 0 0 0 0 0 0 0 0 0 0 0 0 0 0 0 0 0 0 0 0 0
0 0 0 0 0 0 0 0 0 0 0 0 0 0 0 0 0 0 0 0 0 0 0 0 0 0 0 0 0 0 0 0 0 0 0 0 0 0 0 0 0 0 0 0
0 0 0 0 0 0 0 0 0 0 0 0 0 0 0 0 0 0 0 0 0 0 0 0 0 0 0 0 0 0 0 0 0 0 0 0 0 0 0 0 0 0 0 0
0 0 0 0 0 0 0 0 0 0 0 0 0 0 0 0 0 0 0 0 0 0 0 0 0 0 0 0 0 0 0 0 0 0 0 0 0 0 0 0 0 0 0 0
0 0 0 0 0 0 0 0 0 0 0 0 0 0 0 0 0 0 0 0 0 0 0 0 0 0 0 0 0 0 0 0 0 0 0 0 0 0 0 0 0 0 0 0
0 0 0 0 0 0 0 0 0 0 0 0 0 0 0 0 0 0 0 0 0 0 0 0 0 0 0 0 0 0 0 0 0 0 0 0 0 0 0 0 0 0 0 0
0 0 0 0 0 0 0 0 0 0 0 0 0 0 0 0 0 0 0 0 0 0 0 0 0 0 0 0 0 0 0 0 0 0 0 0 0 0 0 0 0 0 0 0
Wind_Speed
14 11 10 14 13 11 9 8 8 4 1 3 4 6 5 6 6 7 8 8 8 7 6 6 5 5 4 4 4 4 4 3 3 3 2 2 1 0 0 0 1 1 1 1
14 14 12 11 9 9 9 7 7 3 2 3 3 5 5 5 6 6 7 8 8 7 7 6 6 5 4 4 3 3 3 3 3 2 2 2 1 1 0 0 1 1 1 2
12 13 10 9 7 7 7 5 4 2 4 5 3 4 4 4 5 7 7 6 7 7 7 6 6 5 5 4 3 3 3 3 3 2 2 2 1 1 0 1 1 1 1 1
10 11 9 5 4 5 5 5 3 2 5 5 4 4 4 4 5 6 7 6 6 6 6 5 6 5 5 4 4 4 3 3 2 2 2 2 2 1 0 0 1 1 1 1
8 9 9 5 3 3 3 2 3 3 4 5 5 6 4 5 6 6 6 6 5 5 5 6 6 6 5 5 5 4 4 3 3 2 2 2 2 1 1 1 1 2 2 2
9 9 7 4 3 3 3 1 5 3 2 4 5 3 4 6 7 7 7 6 5 5 5 6 5 6 5 5 5 4 4 3 2 1 1 2 1 1 1 1 2 3 2 2
10 8 5 4 3 3 2 2 3 4 3 4 4 3 6 7 8 7 7 7 6 6 5 5 6 6 5 5 4 4 3 2 2 1 1 2 1 1 2 2 3 3 3 3
6 6 4 4 3 2 3 3 2 3 3 6 7 8 9 8 8 8 8 7 6 5 5 5 6 6 6 5 4 3 3 2 2 2 2 1 1 2 3 3 3 4 4 3
3 2 2 3 2 3 3 3 3 3 5 8 9 8 9 8 7 7 7 6 5 5 6 5 6 6 6 5 4 3 3 2 2 2 2 2 2 3 3 3 3 3 3 2
3 2 2 3 1 3 4 4 3 5 7 8 9 8 8 8 7 6 6 6 5 5 6 5 5 5 4 4 3 3 3 2 3 3 3 2 2 3 2 2 2 2 2 2
4 3 3 1 2 3 4 4 4 5 6 8 9 9 8 7 7 6 6 5 5 4 5 5 5 5 5 5 4 3 3 3 3 3 3 2 1 1 2 1 2 2 3 3
4 3 2 1 1 2 2 2 4 5 7 8 8 8 8 7 7 6 6 5 5 4 5 5 5 5 5 5 4 4 3 3 3 2 2 3 2 1 1 3 3 3 4 4
4 3 1 1 2 3 2 3 4 5 7 8 8 8 8 7 6 6 6 6 5 5 5 5 5 5 4 4 4 4 3 2 2 2 2 2 2 2 2 2 4 5 6 6
2 2 3 2 3 3 4 5 5 6 8 8 7 7 8 8 7 7 6 6 5 5 5 5 5 5 4 4 4 4 3 3 3 3 3 2 2 2 3 2 2 3 5 8
3 3 3 4 5 5 5 6 6 7 8 8 8 7 7 8 7 7 6 6 5 5 5 5 5 4 4 4 4 4 3 3 2 3 3 3 3 3 3 2 3 2 1 2
2 2 4 5 6 6 7 7 7 8 8 8 8 7 8 7 7 7 6 6 5 5 4 4 4 3 4 4 3 3 3 3 3 3 3 3 3 3 2 2 2 2 2 2
4 4 5 6 6 7 6 7 8 8 8 8 8 8 8 8 7 6 6 6 5 4 4 3 3 3 3 3 3 3 3 4 5 5 4 3 2 2 3 3 3 3 2 2
6 5 5 6 6 7 7 8 8 8 8 9 9 9 8 8 7 7 6 6 5 4 4 3 2 2 2 2 2 2 2 3 3 3 2 2 2 3 3 3 4 4 3 2
4 5 6 6 6 7 7 8 8 8 9 9 9 8 7 7 7 7 6 6 6 5 4 4 3 3 2 1 2 3 3 3 2 1 1 1 3 3 3 3 4 3 3 3
6 7 7 7 6 6 7 7 8 8 8 9 9 8 8 7 7 7 6 5 4 4 5 4 4 3 2 1 2 3 3 3 2 1 2 2 2 2 2 3 4 3 3 3
5 6 7 7 7 7 7 8 9 9 9 9 9 8 8 7 7 7 6 5 5 4 5 5 4 3 2 1 3 4 3 3 3 2 2 2 2 3 3 3 4 4 3 3
5 6 6 7 7 6 6 7 9 9 9 9 9 9 8 7 7 6 5 3 5 5 4 5 4 2 0 2 3 3 3 3 3 2 2 2 2 3 3 4 4 4 4 3
4 5 6 7 7 7 6 7 9 9 9 9 9 9 8 7 6 5 5 4 5 6 4 3 4 4 2 3 4 3 3 3 3 3 2 2 2 3 3 4 3 3 3 3
4 5 6 6 7 7 7 7 8 7 8 8 8 8 7 6 5 4 4 7 6 7 4 4 6 5 4 4 4 4 3 3 3 3 3 3 3 3 3 3 3 4 4 5
5 6 7 7 7 6 6 7 8 8 9 7 8 9 7 5 5 5 5 8 9 8 5 6 8 7 5 4 4 3 2 2 3 3 3 4 4 4 4 4 4 4 4 4
5 5 5 5 4 5 7 7 7 7 8 7 7 7 6 5 6 5 5 8 9 7 5 5 6 6 5 4 3 2 2 1 1 2 3 3 4 4 4 4 6 5 5 5
6 5 4 5 6 6 6 7 7 7 7 7 7 7 6 6 6 6 6 6 7 6 5 4 4 4 3 3 2 2 1 2 2 3 3 3 3 4 4 5 4 4 5 6
Wind_Direction
287 281 267 270 275 278 281 288 292 287 270 188 183 154 145 144 155 149 146 147 145 147 147 150 148 142 148 145 141 139 141 138 139 142 143 138 135 141 181 212 314 333 328 326
291 287 275 274 277 280 282 291 293 293 83 113 125 124 139 153 159 156 157 157 157 156 156 157 153 149 151 145 143 147 151 149 143 142 149 158 174 188 189 50 360 344 337 334
283 288 291 280 285 294 293 299 303 322 130 142 141 138 145 160 169 162 156 157 160 161 159 157 154 151 151 152 155 157 157 156 162 170 173 180 178 137 77 21 355 339 331 338
280 286 275 264 281 295 298 312 339 93 131 144 146 124 126 144 157 150 148 147 149 152 149 153 153 152 154 160 165 165 163 168 176 187 177 169 149 124 80 359 321 305 312 307
272 275 278 271 276 297 305 309 19 79 116 129 126 124 128 134 136 137 138 136 136 140 142 148 153 156 159 166 168 172 176 178 182 194 185 170 152 164 194 228 262 269 277 288
263 274 282 290 308 308 285 304 38 70 123 139 152 169 138 130 129 130 130 134 136 146 146 147 153 158 166 171 176 186 187 185 178 181 188 170 171 196 230 246 252 264 265 269
258 266 273 309 323 306 300 63 46 56 77 108 112 87 116 126 127 129 133 137 144 154 157 157 160 162 170 178 186 189 187 182 172 191 200 180 182 230 240 249 253 256 257 256
258 259 267 354 333 17 78 98 86 88 108 110 109 114 120 121 126 133 138 143 152 152 150 151 158 167 177 184 185 186 190 190 191 202 214 185 198 232 239 248 252 247 247 245
303 280 325 348 51 85 106 114 106 115 119 113 116 120 120 120 125 134 136 141 145 146 144 150 164 176 182 178 179 189 194 193 205 205 201 208 232 244 247 251 261 260 259 259
263 223 310 317 36 91 85 87 94 112 118 119 121 122 123 123 126 131 134 138 142 148 147 151 163 170 171 169 178 189 193 198 213 213 210 214 239 257 260 273 288 299 303 307
271 253 254 282 50 75 85 97 101 114 121 122 125 128 128 130 131 132 134 135 143 144 145 151 156 159 162 165 176 187 204 215 219 224 218 219 231 278 273 275 266 276 306 317
273 270 284 290 46 92 99 112 124 124 124 125 127 129 131 131 131 136 138 138 142 146 148 150 153 155 161 170 177 183 203 212 227 228 218 213 201 239 269 245 247 249 250 259
274 271 271 251 123 130 154 153 132 132 128 128 127 130 131 131 134 137 140 145 146 150 151 151 151 158 168 174 174 179 202 216 245 251 247 239 214 216 245 261 258 261 259 257
300 264 247 185 148 142 146 131 122 131 130 129 128 128 131 135 140 143 147 148 150 154 156 157 158 164 169 171 174 183 201 207 236 257 267 269 262 252 246 246 247 249 247 243
257 241 200 157 151 143 144 139 143 139 133 131 130 132 138 139 142 143 144 148 151 156 160 161 158 158 168 175 180 193 206 216 228 254 266 268 269 276 282 287 289 288 278 240
232 222 189 172 174 164 166 161 148 142 142 141 139 139 136 136 137 136 140 147 153 159 154 151 150 166 181 178 188 198 203 228 254 265 263 264 270 285 296 298 300 303 303 312
221 213 193 173 174 168 171 161 151 151 149 146 141 138 138 140 141 145 150 151 150 151 151 155 164 181 182 183 212 226 209 202 217 246 260 275 288 297 299 296 298 299 298 301
205 206 190 172 173 168 164 156 151 151 150 147 143 147 152 152 154 153 153 150 153 155 160 164 161 185 182 183 227 257 255 241 220 238 250 256 275 280 285 294 304 308 309 308
186 182 173 162 165 164 158 154 152 153 151 150 150 153 155 154 154 155 156 161 165 169 164 151 163 199 209 189 249 248 256 261 257 250 262 260 261 273 287 300 309 316 322 326
168 166 158 153 151 152 155 150 150 150 149 150 150 152 155 156 157 156 159 165 165 157 150 155 180 201 222 201 251 264 269 273 278 276 266 271 287 305 309 308 308 307 310 309
159 158 154 150 148 147 148 149 149 150 150 152 155 157 154 156 159 160 171 169 154 155 154 162 191 202 210 241 237 264 275 281 284 281 289 302 307 307 309 310 312 315 313 315
162 160 155 146 144 139 140 148 152 154 154 157 158 156 155 158 161 164 174 160 154 155 176 180 183 158 138 278 260 255 269 283 289 298 308 309 306 303 311 321 323 327 329 332
159 158 152 145 144 144 151 158 158 157 159 162 160 159 163 167 171 174 170 165 160 163 189 172 146 146 172 250 270 267 270 286 298 304 312 313 313 324 334 331 333 335 340 346
156 151 146 144 146 153 162 163 157 157 160 160 160 163 167 169 170 175 160 154 154 158 179 153 155 168 207 245 262 267 271 282 296 312 328 333 340 346 347 346 341 345 358 4
155 151 149 154 161 164 164 161 157 162 165 164 165 167 175 173 169 165 156 149 152 163 178 170 182 193 223 247 258 266 283 323 343 345 347 345 345 348 353 355 358 3 4 3
154 161 158 175 176 171 173 174 172 174 171 167 168 168 169 166 163 161 161 159 162 177 196 179 184 201 227 244 255 271 289 295 302 319 338 343 346 353 359 2 3 2 3 5
164 162 166 183 182 183 180 177 175 175 171 167 166 166 170 170 167 169 172 167 167 181 201 202 196 200 208 221 241 258 296 336 356 355 351 353 356 1 5 5 6 10 10 9